• In Moldova, Republic
  • List of Countries
  • For 7 days
  • Water Temperature
  • Satellite Maps
  • Weather Map
  • Weather Widgets
  • user-avatar
    Login

    Hourly Weather Wlora

    Today, 27 February, Monday

    Time Temperature Precipitation Wind Pressure Humidity
    00:00 +13°C° 0 mm 4 mps 764 mmHg 83%
    01:00 +13°C° 0 mm 4 mps 763 mmHg 84%
    02:00 +12°C° 0 mm 4 mps 763 mmHg 83%
    03:00 +12°C° 0 mm 4 mps 763 mmHg 82%
    04:00 +11°C° 0 mm 4 mps 763 mmHg 81%
    05:00 +12°C° 0 mm 3 mps 763 mmHg 79%
    06:00 +12°C° 0 mm 3 mps 763 mmHg 78%
    07:00 +13°C° 0 mm 2 mps 763 mmHg 76%
    08:00 +15°C° 0 mm 2 mps 763 mmHg 70%
    09:00 +18°C° 0 mm 1 mps 763 mmHg 64%
    10:00 +20°C° 0 mm 1 mps 763 mmHg 58%
    11:00 +20°C° 0 mm 1 mps 763 mmHg 56%
    12:00 +20°C° 0 mm 2 mps 762 mmHg 54%
    13:00 +20°C° 0 mm 2 mps 762 mmHg 52%
    14:00 +20°C° 0 mm 2 mps 762 mmHg 55%
    15:00 +19°C° 0 mm 2 mps 762 mmHg 58%
    16:00 +19°C° 0 mm 2 mps 762 mmHg 61%
    17:00 +17°C° 0 mm 2 mps 762 mmHg 68%
    18:00 +15°C° 0 mm 1 mps 762 mmHg 75%
    19:00 +14°C° 0 mm 1 mps 762 mmHg 81%
    20:00 +13°C° 0 mm 1 mps 762 mmHg 81%
    21:00 +13°C° 0 mm 1 mps 762 mmHg 82%
    22:00 +13°C° 0 mm 1 mps 762 mmHg 82%
    23:00 +13°C° 0 mm 1 mps 762 mmHg 82%

    Tomorrow, 28 February, Tuesday

    Time Temperature Precipitation Wind Pressure Humidity
    00:00 +12°C° 0 mm 2 mps 762 mmHg 81%
    01:00 +12°C° 0 mm 2 mps 762 mmHg 81%
    02:00 +12°C° 0 mm 2 mps 762 mmHg 81%
    03:00 +10°C° 0 mm 2 mps 762 mmHg 82%
    04:00 +10°C° 0 mm 2 mps 761 mmHg 82%
    05:00 +12°C° 0 mm 2 mps 762 mmHg 82%
    06:00 +12°C° 0 mm 2 mps 762 mmHg 81%
    07:00 +11°C° 0 mm 3 mps 762 mmHg 81%
    08:00 +13°C° 0 mm 3 mps 762 mmHg 74%
    09:00 +15°C° 0 mm 4 mps 762 mmHg 66%
    10:00 +18°C° 0 mm 4 mps 762 mmHg 59%
    11:00 +17°C° 0 mm 5 mps 762 mmHg 58%
    12:00 +19°C° 0 mm 5 mps 762 mmHg 57%
    13:00 +19°C° 0 mm 6 mps 761 mmHg 55%
    14:00 +19°C° 0 mm 6 mps 761 mmHg 58%
    15:00 +17°C° 0 mm 6 mps 761 mmHg 61%
    16:00 +17°C° 0 mm 6 mps 760 mmHg 64%
    17:00 +16°C° 0 mm 7 mps 761 mmHg 70%
    18:00 +14°C° 0 mm 7 mps 761 mmHg 76%
    19:00 +12°C° 0 mm 7 mps 761 mmHg 82%
    20:00 +12°C° 0 mm 7 mps 761 mmHg 83%
    21:00 +11°C° 0 mm 7 mps 761 mmHg 84%
    22:00 +11°C° 0 mm 7 mps 761 mmHg 85%
    23:00 +11°C° 0 mm 7 mps 761 mmHg 86%

    Day after tomorrow, 1 March, Wednesday

    Time Temperature Precipitation Wind Pressure Humidity
    00:00 +11°C° 0 mm 7 mps 761 mmHg 87%
    01:00 +11°C° 0 mm 8 mps 761 mmHg 88%
    02:00 +11°C° 0.1 mm 7 mps 760 mmHg 89%
    03:00 +11°C° 0.1 mm 7 mps 760 mmHg 90%
    04:00 +11°C° 0.1 mm 7 mps 760 mmHg 91%
    05:00 +11°C° 0.2 mm 7 mps 760 mmHg 90%
    06:00 +11°C° 0.2 mm 6 mps 760 mmHg 89%
    07:00 +11°C° 0.2 mm 6 mps 760 mmHg 89%
    08:00 +13°C° 0.2 mm 6 mps 760 mmHg 85%
    09:00 +14°C° 0.2 mm 6 mps 760 mmHg 82%
    10:00 +15°C° 0.2 mm 6 mps 760 mmHg 78%
    11:00 +15°C° 0.5 mm 6 mps 759 mmHg 76%
    12:00 +15°C° 0.5 mm 6 mps 759 mmHg 73%
    13:00 +16°C° 0.5 mm 6 mps 758 mmHg 71%
    14:00 +15°C° 1.9 mm 5 mps 758 mmHg 77%
    15:00 +13°C° 1.9 mm 5 mps 758 mmHg 83%
    16:00 +12°C° 1.9 mm 4 mps 758 mmHg 90%
    17:00 +12°C° 0.7 mm 5 mps 759 mmHg 87%
    18:00 +12°C° 0.7 mm 5 mps 759 mmHg 85%
    19:00 +10°C° 0.7 mm 5 mps 760 mmHg 83%
    20:00 +10°C° 0 mm 5 mps 760 mmHg 82%
    21:00 +9°C° 0 mm 5 mps 761 mmHg 82%
    22:00 +9°C° 0 mm 6 mps 761 mmHg 81%
    23:00 +8°C° 0 mm 6 mps 761 mmHg 81%

    2 March, Thursday

    Time Temperature Precipitation Wind Pressure Humidity
    00:00 +8°C° 0 mm 6 mps 762 mmHg 80%
    01:00 +8°C° 0 mm 6 mps 762 mmHg 80%
    02:00 +8°C° 0 mm 6 mps 762 mmHg 80%
    03:00 +7°C° 0 mm 6 mps 762 mmHg 81%
    04:00 +6°C° 0 mm 7 mps 762 mmHg 81%
    05:00 +7°C° 0 mm 6 mps 763 mmHg 80%
    06:00 +7°C° 0 mm 6 mps 763 mmHg 80%
    07:00 +8°C° 0 mm 5 mps 763 mmHg 79%
    08:00 +9°C° 0 mm 5 mps 764 mmHg 71%
    09:00 +12°C° 0 mm 4 mps 764 mmHg 63%
    10:00 +13°C° 0 mm 4 mps 764 mmHg 55%
    11:00 +14°C° 0 mm 4 mps 764 mmHg 52%
    12:00 +14°C° 0 mm 4 mps 764 mmHg 49%
    13:00 +15°C° 0 mm 5 mps 764 mmHg 45%
    14:00 +15°C° 0 mm 5 mps 764 mmHg 48%
    15:00 +14°C° 0 mm 5 mps 764 mmHg 51%
    16:00 +14°C° 0 mm 5 mps 764 mmHg 53%
    17:00 +13°C° 0 mm 5 mps 764 mmHg 59%
    18:00 +11°C° 0 mm 4 mps 764 mmHg 65%
    19:00 +8°C° 0 mm 4 mps 765 mmHg 70%
    20:00 +8°C° 0 mm 4 mps 765 mmHg 70%
    21:00 +8°C° 0 mm 4 mps 765 mmHg 70%
    22:00 +9°C° 0 mm 3 mps 765 mmHg 70%
    23:00 +8°C° 0 mm 3 mps 765 mmHg 70%

    3 March, Friday

    Time Temperature Precipitation Wind Pressure Humidity
    00:00 +8°C° 0 mm 3 mps 765 mmHg 71%
    01:00 +8°C° 0 mm 3 mps 765 mmHg 71%
    02:00 +8°C° 0 mm 3 mps 765 mmHg 72%
    03:00 +8°C° 0 mm 3 mps 765 mmHg 73%
    04:00 +7°C° 0 mm 3 mps 764 mmHg 75%
    05:00 +8°C° 0 mm 2 mps 765 mmHg 72%
    06:00 +8°C° 0 mm 2 mps 765 mmHg 69%
    07:00 +9°C° 0 mm 2 mps 765 mmHg 66%
    08:00 +12°C° 0 mm 2 mps 765 mmHg 59%
    09:00 +14°C° 0 mm 2 mps 765 mmHg 53%
    10:00 +18°C° 0 mm 1 mps 765 mmHg 46%
    11:00 +18°C° 0 mm 1 mps 765 mmHg 46%
    12:00 +18°C° 0 mm 2 mps 765 mmHg 47%
    13:00 +18°C° 0 mm 2 mps 765 mmHg 47%
    14:00 +18°C° 0 mm 2 mps 765 mmHg 51%
    15:00 +17°C° 0 mm 2 mps 765 mmHg 55%
    16:00 +17°C° 0 mm 2 mps 765 mmHg 58%
    17:00 +14°C° 0 mm 3 mps 765 mmHg 67%
    18:00 +12°C° 0 mm 3 mps 765 mmHg 75%
    19:00 +10°C° 0 mm 3 mps 765 mmHg 83%
    20:00 +11°C° 0 mm 3 mps 765 mmHg 83%
    21:00 +11°C° 0 mm 3 mps 765 mmHg 84%
    22:00 +11°C° 0 mm 4 mps 765 mmHg 84%
    23:00 +10°C° 0 mm 4 mps 765 mmHg 84%

    4 March, Saturday

    Time Temperature Precipitation Wind Pressure Humidity
    00:00 +10°C° 0 mm 4 mps 765 mmHg 83%
    01:00 +10°C° 0 mm 4 mps 765 mmHg 83%
    02:00 +10°C° 0 mm 4 mps 765 mmHg 82%
    03:00 +10°C° 0 mm 4 mps 765 mmHg 81%
    04:00 +8°C° 0 mm 4 mps 765 mmHg 80%
    05:00 +9°C° 0 mm 5 mps 765 mmHg 79%
    06:00 +9°C° 0 mm 5 mps 765 mmHg 77%
    07:00 +9°C° 0 mm 5 mps 765 mmHg 76%
    08:00 +12°C° 0 mm 5 mps 765 mmHg 69%
    09:00 +14°C° 0 mm 5 mps 765 mmHg 62%
    10:00 +16°C° 0 mm 5 mps 765 mmHg 55%
    11:00 +16°C° 0 mm 5 mps 765 mmHg 54%
    12:00 +17°C° 0 mm 6 mps 764 mmHg 53%
    13:00 +19°C° 0 mm 6 mps 764 mmHg 53%
    14:00 +17°C° 0 mm 6 mps 764 mmHg 56%
    15:00 +17°C° 0 mm 6 mps 764 mmHg 59%
    16:00 +16°C° 0 mm 6 mps 764 mmHg 62%
    17:00 +15°C° 0 mm 5 mps 764 mmHg 69%
    18:00 +13°C° 0 mm 5 mps 764 mmHg 76%
    19:00 +12°C° 0 mm 5 mps 764 mmHg 84%
    20:00 +12°C° 0 mm 5 mps 764 mmHg 83%
    21:00 +10°C° 0 mm 5 mps 764 mmHg 83%
    22:00 +10°C° 0 mm 5 mps 764 mmHg 83%
    23:00 +10°C° 0 mm 6 mps 764 mmHg 82%
    Show more